Simultaneous Nadir Overpasses (SNOs) Predictions

Prediction of SNOs between AURA and NPP Satellite Orbit:

Table of predicted SNOs for the next 14.0 days since TLE Epoch: 3/2/2024
Index Date (AURA) Time (AURA) Lat,Lon (AURA) SZA (AURA ) Date (NPP) Time (NPP) Lat,Lon (NPP) SZA (NPP ) Distance(km) Time Diff (sec)
1 03/02/2024 21:02:02 -80.36, -50.09 82.07 03/02/2024 21:01:48 -80.36, -49.96 82.08 2.46 14
2 03/02/2024 21:51:24 80.41, 118.05 97.84 03/02/2024 21:52:31 80.41, 117.89 97.82 2.95 67
3 03/05/2024 10:47:23 80.28, -77.22 97.08 03/05/2024 10:46:29 80.28, -77.17 97.11 0.90 54
4 03/05/2024 11:36:44 -80.41, 91.69 83.16 03/05/2024 11:37:09 -80.41, 91.81 83.20 2.23 25
5 03/08/2024 01:22:03 80.35, 64.82 95.93 03/08/2024 01:21:49 80.35, 64.85 95.93 0.61 14
6 03/08/2024 02:11:24 -80.48,-126.24 84.32 03/08/2024 02:12:29 -80.48,-126.14 84.38 1.80 65
7 03/10/2024 15:07:24 -80.25, 37.55 84.93 03/10/2024 15:06:31 -80.25, 37.44 84.87 2.18 53
8 03/10/2024 15:56:43 80.39,-153.48 94.83 03/10/2024 15:57:10 80.39,-153.49 94.81 0.36 27
9 03/13/2024 05:41:59 -80.38,-179.83 86.20 03/13/2024 05:41:47 -80.39,-179.67 86.22 3.06 12
10 03/13/2024 06:31:20 80.45, -11.49 93.67 03/13/2024 06:32:29 80.45, -11.54 93.63 1.03 69
11 03/15/2024 19:27:15 80.31, 153.17 92.90 03/15/2024 19:26:27 80.31, 153.20 92.93 0.61 48



Historial Predications of SNOs between AURA and NPP
